User: anonymous   Login
Location: Berg
(48.4333°N, 13.9167°E)
Time: 20:21:23
(UTC+00:00)
Language:

SPOT 3 Rocket - Orbit

View from above orbital plane
View from above orbital plane
View from above satellite
View from above satellite

Ground track
Ground track

The orbit data is extracted from the following two-line orbital elements,

1 22830U 93061H   20332.86618378 +.00000006 +00000-0 +19187-4 0  9997
2 22830 098.7447 023.4061 0010676 197.9020 162.1788 14.31460742418200
Epoch (UTC): 27 November 2020 20:47:18
Eccentricity: 0.0010676
inclination: 98.7447°
perigee height: 779 km
apogee height: 794 km
right ascension of ascending node: 23.4061°
argument of perigee: 197.9020°
revolutions per day: 14.31460742
mean anomaly at epoch: 162.1788°
orbit number at epoch: 41820

The dashed part of the orbit path shows where the satellite is in the earth's shadow,  

DLR